Flag for Norway Weather past 2 weeks in Ulsteinvik, Norway

Now
43 °F

Mostly cloudy.


Feels Like: 40 °F
Forecast: 39 / 44 °F
Wind: 5 mph from South

Location: Alesund / Vigra

Current Time: Mar 1, 2015 at 10:02:17 AM

Latest Report: Mar 1, 2015 at 9:20 AM


Visibility: N/A

Pressure: 28.68 "Hg

Humidity: 71%

Dew point: 34 °F

Location of UlsteinvikLocation

Historic Weather in Ulsteinvik — Graph

°F

Ulsteinvik temperature yesterday

Maximum temperature yesterday: 45 °F (at 4:20 AM)
Minimum temperature yesterday: 41 °F (at 1:50 AM)
Average temperature yesterday: 44 °F

Past Weeks' High & Low Weather Summary

 TemperatureHumidityPressure
High50 °F (Feb 15, 2:50 PM)100% (Feb 21, 2:50 PM)30.12 "Hg (Feb 21, 2:50 PM)
Low30 °F (Feb 22, 8:20 PM)40% (Feb 16, 1:50 AM)28.56 "Hg (Feb 23, 10:20 AM)
Average41 °F71%29.43 "Hg
* Reported Feb 14 8:20 AM — Mar 1 8:50 AM, Ulsteinvik, Weather by CustomWeather, © 2015

Note: Actual official high and low records may vary slightly from our data, if they occured in-between our weather recording intervals... More about our weather records

Advertising

Ulsteinvik weather history for previous 24 hours

 ConditionsComfort  
Time TempWeatherWind HumidityBarometerVisibility
8:50 AM
Sun, Mar 1
43 °FOvercast.3 mph71%28.68 "HgN/A
7:50 AM43 °FPartly sunny.5 mph76%28.74 "HgN/A
7:20 AM45 °FClear.9 mph66%28.74 "Hg10 mi
6:50 AM43 °FPassing clouds.5 mph71%28.77 "HgN/A
6:20 AM46 °FClear.6 mph62%28.80 "Hg10 mi
5:50 AM46 °FOvercast.9 mph62%28.80 "HgN/A
5:20 AM45 °FPassing clouds.7 mph71%28.82 "HgN/A
4:50 AM43 °FMostly cloudy.8 mph76%28.85 "HgN/A
4:20 AM43 °FOvercast.3 mph76%28.88 "HgN/A
3:50 AM43 °FMostly cloudy.3 mph76%28.88 "HgN/A
3:20 AM43 °FOvercast.3 mph76%28.91 "HgN/A
2:50 AM43 °FPassing clouds.1 mph76%28.91 "HgN/A
2:20 AM45 °FPassing clouds.5 mph71%28.94 "HgN/A
1:50 AM45 °FOvercast.6 mph71%28.97 "HgN/A
1:20 AM45 °FPassing clouds.5 mph71%28.97 "HgN/A
12:50 AM45 °FPartly cloudy.7 mph71%29.00 "HgN/A
12:20 AM45 °FPassing clouds.5 mph71%29.00 "HgN/A
11:50 PM
Sat, Feb 28
43 °FPassing clouds.3 mph76%29.03 "HgN/A
11:20 PM43 °FPassing clouds.6 mph76%29.03 "HgN/A
10:20 PM43 °FPassing clouds.5 mph81%29.09 "HgN/A
9:20 PM45 °FPassing clouds.14 mph71%29.12 "HgN/A
8:50 PM45 °FPartly cloudy.14 mph71%29.12 "HgN/A
8:20 PM45 °FPassing clouds.14 mph71%29.15 "HgN/A
7:50 PM45 °FPartly cloudy.15 mph71%29.15 "HgN/A
7:20 PM45 °FPassing clouds.15 mph71%29.15 "HgN/A
6:50 PM45 °FPassing clouds.16 mph71%29.18 "HgN/A
6:20 PM45 °FPassing clouds.18 mph71%29.18 "HgN/A
5:20 PM45 °FPartly sunny.17 mph71%29.18 "HgN/A
4:50 PM45 °FPartly sunny.20 mph66%29.21 "HgN/A
4:20 PM43 °FDrizzle. Partly sunny.14 mph76%29.21 "HgN/A
3:50 PM43 °FDrizzle. Broken clouds.17 mph76%29.21 "HgN/A
3:20 PM43 °FBroken clouds.18 mph76%29.21 "HgN/A
2:50 PM43 °FDrizzle. Mostly cloudy.21 mph76%29.21 "HgN/A
2:20 PM45 °FPartly sunny.21 mph66%29.21 "HgN/A
1:50 PM45 °FBroken clouds.23 mph66%29.24 "HgN/A
1:20 PM45 °FBroken clouds.21 mph66%29.24 "HgN/A
12:20 PM45 °FScattered clouds.20 mph61%29.24 "HgN/A
11:50 AM45 °FBroken clouds.18 mph57%29.24 "HgN/A
11:20 AM45 °FPartly sunny.23 mph61%29.24 "HgN/A
10:50 AM45 °FBroken clouds.25 mph61%29.24 "HgN/A
10:20 AM45 °FPartly sunny.28 mph57%29.24 "HgN/A
Weather by CustomWeather, © 2015

See weather overviewHow to use our weather pages